Location: Strawberry
(45.6646°N, 111.9596°W)
Time: 20:26:19
(UTC+00:00)

Vanguard 3 - Visible Passes

Search period start: 04 December 2023 00:00
Search period end: 14 December 2023 00:00
Orbit: 507 x 3241 km, 33.3° (Epoch: 04 December)

Date Brightness Start Highest point End Pass type
(mag) Time Alt. Az. Time Alt. Az. Time Alt. Az.
04 Dec 10.6 03:48:16 10° SSW 03:52:04 15° S 03:52:04 15° S visible
05 Dec 10.6 02:32:48 10° S 02:38:31 13° SSE 02:39:42 13° SE visible
05 Dec 10.7 04:41:11 10° SW 04:44:01 16° SSW 04:44:01 16° SSW visible
06 Dec 10.3 03:23:21 10° SSW 03:31:38 21° S 03:31:38 21° S visible
06 Dec 11.0 05:35:41 10° SW 05:35:58 11° SW 05:35:58 11° SW visible
07 Dec 10.5 02:06:54 10° S 02:15:43 17° SSE 02:19:13 15° SE visible
07 Dec 10.4 04:16:50 10° SW 04:23:33 24° SSW 04:23:33 24° SSW visible
08 Dec 10.9 00:54:57 10° SSE 00:57:42 11° SE 01:00:18 10° SE visible
08 Dec 10.1 02:58:35 10° SSW 03:10:49 26° SSE 03:11:07 26° SSE visible
08 Dec 10.7 05:11:40 10° SW 05:15:27 19° SW 05:15:27 19° SW visible
09 Dec 10.4 01:41:36 10° S 01:52:45 20° SSE 01:58:40 15° ESE visible
09 Dec 10.1 03:52:29 10° SW 04:03:00 32° S 04:03:00 32° S visible
09 Dec 11.1 06:07:13 10° WSW 06:07:19 10° WSW 06:07:19 10° WSW visible
10 Dec 10.9 00:27:18 10° SSE 00:34:35 14° SE 00:41:04 10° ESE visible
10 Dec 10.0 02:33:56 10° SSW 02:47:54 30° SSE 02:50:31 29° SE visible
10 Dec 10.3 04:47:33 10° WSW 04:54:50 28° SW 04:54:50 28° SW visible
11 Dec 10.5 01:16:37 10° SSW 01:29:37 24° SSE 01:38:01 14° ESE visible
11 Dec 9.8 03:28:08 10° SW 03:42:20 39° S 03:42:20 39° S visible
11 Dec 10.8 05:43:18 10° WSW 05:46:40 18° WSW 05:46:40 18° WSW visible
12 Dec 10.9 00:01:29 10° S 00:11:19 16° SE 00:19:58 10° ESE visible
12 Dec 10.0 02:09:25 10° SSW 02:24:47 34° SSE 02:29:49 28° SE visible
12 Dec 10.0 04:23:24 10° WSW 04:34:08 37° SSW 04:34:08 37° SSW visible
13 Dec 10.6 00:51:54 10° SSW 01:06:19 27° SSE 01:17:17 11° ESE visible
13 Dec 9.7 03:03:50 10° SW 03:20:03 43° SSE 03:21:36 42° SSE visible
13 Dec 10.5 05:19:18 10° WSW 05:25:55 26° WSW 05:25:55 26° WSW visible
